Location: Cisewo
(53.3833°N, 14.9000°E)
Time: 13:39:50
(UTC+00:00)

SL-16 R/B - Pass Details

Date: 18 April 2021
Orbit: 840 x 849 km, 71.0° (Epoch: 16 May)

Event Time Altitude Azimuth Distance (km) Brightness Sun altitude
Rises 20:26:54 0° 327° (NNW) 3,426 7.1 -17.8°
Reaches altitude 10° 20:29:22 10° 328° (NNW) 2,486 5.9 -18.0°
Maximum altitude 20:35:06 88° 57° (ENE) 856 2.2 -18.5°
Enters shadow 20:37:44 34° 148° (SSE) 1,373 2.7 -18.8°
